SCP
-0 0 -0 0 -0 0 -0 -0 -0 1 1 1 0 0 0 0 0 0 1 0 1 1 0 0 0 0 0 0 0 0 0 -0 -0 -0 0 0 0 0 0 0 0 0 0
-1 -0 0 0 0 0 0 0 0 0 1 1 1 1 1 1 1 1 1 1 1 0 0 0 0 0 0 0 0 0 0 0 -0 0 0 0 0 0 0 0 0 0 0
-1 -1 -0 -0 0 0 0 1 1 1 1 1 1 1 2 1 1 1 1 1 1 1 0 0 0 0 0 0 0 0 0 -0 0 0 0 0 0 0 0 0 0 0 0
0 -0 -0 0 0 0 1 1 2 1 1 1 1 1 1 1 1 1 1 1 1 1 1 0 0 0 0 0 0 0 0 0 0 0 0 0 0 0 0 0 0 0 0
0 0 0 0 0 1 1 2 2 2 1 1 1 1 -0 0 2 2 1 1 2 1 0 1 1 1 1 0 0 0 0 0 0 0 0 0 0 0 0 0 0 0 0
0 0 0 1 0 1 1 1 2 2 1 1 1 1 1 1 3 2 1 1 2 1 1 1 1 1 1 0 0 1 0 0 0 0 0 0 0 0 0 0 0 0 0
0 0 0 1 0 1 1 1 1 1 1 1 1 1 2 2 3 2 1 2 2 2 2 2 2 1 1 1 0 1 1 1 1 1 0 0 0 0 0 0 0 0 0
0 0 0 0 1 1 2 1 1 1 1 1 1 1 1 2 2 2 1 1 2 2 2 1 1 2 2 1 1 1 1 1 1 1 0 0 0 0 0 0 0 0 0
0 0 0 0 0 2 2 1 1 1 2 1 2 3 3 3 2 2 1 1 2 4 1 1 1 2 1 1 1 1 1 1 1 1 1 0 0 0 0 0 0 0 0
0 0 0 0 0 1 -0 -0 1 1 1 2 3 2 2 2 1 1 2 1 2 3 1 2 2 2 1 1 1 1 1 1 1 1 1 0 0 0 0 0 0 0 0
0 0 0 0 0 0 0 0 0 1 2 3 3 2 2 2 1 1 1 0 1 1 2 2 2 2 1 1 1 1 1 0 0 0 0 0 0 0 0 0 0 0 0
0 0 0 0 0 0 0 0 0 1 3 2 3 2 1 1 1 0 0 1 2 2 1 2 1 1 2 2 1 1 0 0 0 0 0 0 0 0 0 0 0 0 0
0 0 0 -0 -0 0 0 0 -0 4 3 3 2 1 1 1 1 1 2 2 1 1 1 1 2 2 2 1 1 1 0 0 0 0 0 0 0 0 0 0 0 0 0
0 1 2 3 4 1 0 0 3 2 2 2 1 1 2 2 2 2 2 2 2 2 2 2 2 1 1 1 1 1 1 1 1 0 0 0 0 0 0 0 0 0 0
1 1 1 2 3 3 3 1 1 1 1 1 1 1 1 3 2 3 2 2 2 2 2 1 1 1 1 0 0 0 0 0 0 0 0 0 0 0 0 0 0 0 0
1 1 1 1 1 1 1 1 0 0 1 1 2 2 2 2 2 1 2 2 1 1 1 1 0 0 0 0 0 0 0 0 0 0 0 0 0 0 0 0 0 0 0
1 1 1 0 1 1 0 0 0 0 0 0 1 1 1 0 1 1 1 1 1 1 1 0 0 0 0 0 0 0 0 0 0 0 0 0 0 0 0 0 0 0 0
1 1 1 1 1 1 0 -0 -0 0 0 0 0 0 0 0 0 1 1 1 1 1 0 0 0 0 0 0 0 0 0 0 0 0 0 0 0 0 0 0 0 0 0
2 1 1 1 1 1 0 0 0 1 0 0 0 0 0 0 0 0 1 1 1 0 0 0 0 0 0 0 0 0 0 0 0 0 0 0 0 0 0 0 0 0 0
1 1 1 1 2 1 1 1 1 1 0 0 0 0 0 0 0 0 0 0 0 0 0 0 0 0 0 0 0 0 0 0 0 0 0 0 0 0 0 0 0 0 0
1 0 1 1 2 2 1 0 0 1 0 0 0 0 0 0 0 0 0 1 0 0 -0 0 0 0 0 0 0 0 0 0 0 0 0 0 0 -0 -0 0 0 0 0
0 0 1 1 2 1 0 0 0 0 0 0 0 0 0 0 0 0 1 1 0 0 0 0 0 0 0 0 0 0 0 0 0 0 0 0 0 0 0 0 0 0 0
1 1 1 0 0 1 0 0 0 0 0 0 0 0 0 0 0 1 0 0 1 0 0 0 0 0 0 0 0 0 0 0 0 0 0 0 -0 -0 0 0 0 0 0
0 0 0 0 0 1 0 0 0 0 0 0 0 0 0 0 0 0 0 0 0 0 0 0 0 0 0 0 0 0 0 0 0 0 0 -0 0 0 0 0 0 0 0
0 0 0 0 0 0 0 0 0 0 0 0 0 0 0 0 0 1 0 0 0 0 0 0 0 0 0 0 0 0 0 0 0 0 0 0 0 0 0 0 0 0 0
0 0 0 0 0 0 0 0 0 0 0 0 0 0 0 0 0 0 0 0 0 0 0 0 0 0 0 0 0 0 -0 0 0 0 0 0 -0 -0 -0 0 0 0 0
Wind_Speed_500mb
35 28 24 24 31 38 43 38 40 45 43 38 28 23 26 14 16 13 21 22 21 27 29 26 16 11 12 15 19 25 24 18 21 25 17 26 27 24 30 32 23 29 23
45 40 36 31 31 40 42 51 46 46 51 40 29 22 18 11 9 11 16 21 25 23 24 24 13 17 18 22 28 27 24 27 24 27 24 29 36 41 41 40 39 33 35
56 52 46 41 36 39 48 47 50 47 47 37 31 30 23 19 14 15 19 17 17 22 20 19 15 20 26 23 27 28 32 30 24 33 32 19 23 29 49 48 45 41 45
45 57 52 46 42 40 42 45 47 48 43 47 31 25 20 9 10 7 5 11 23 27 30 17 14 23 25 20 24 24 30 34 33 26 37 39 45 20 6 47 47 43 42
31 31 46 44 40 37 40 44 44 46 40 46 35 25 22 15 16 18 19 16 18 16 24 21 24 24 27 24 28 31 33 34 36 38 28 38 31 32 39 39 26 49 46
32 31 33 40 42 37 38 44 44 43 39 44 48 39 27 21 16 15 12 7 24 21 26 28 27 26 26 28 29 40 44 43 45 39 44 42 31 37 38 41 46 42 41
32 34 44 45 46 46 47 47 47 48 46 43 50 36 34 28 31 28 20 16 9 18 28 30 30 30 27 28 27 39 46 48 52 53 52 48 50 44 44 33 39 41 41
37 37 37 41 44 49 51 51 50 46 49 44 38 36 30 26 22 27 22 16 24 25 19 27 30 37 40 34 33 38 46 52 55 57 56 57 58 49 50 55 49 44 49
37 32 37 38 42 49 51 44 40 39 41 38 35 36 34 29 28 25 16 12 36 34 23 31 35 39 43 42 41 43 48 49 55 56 58 58 57 59 54 54 50 54 52
4 24 46 38 34 28 35 24 26 31 30 28 34 34 29 27 23 23 18 28 36 41 38 42 44 46 50 48 48 53 53 52 57 59 64 63 62 57 57 57 55 51 52
18 38 43 20 21 37 64 12 28 42 43 38 32 28 21 24 24 23 28 41 41 51 45 39 44 44 44 47 53 59 60 58 57 57 58 66 65 67 57 46 52 61 63
9 15 47 60 30 16 38 38 86 51 34 25 26 25 27 29 32 36 37 31 32 30 32 33 35 39 42 46 50 53 55 58 58 57 59 61 62 65 64 62 59 57 54
21 11 9 24 11 20 15 8 30 20 13 15 21 20 23 27 34 20 24 27 27 26 27 34 43 47 42 42 42 45 49 47 47 53 55 51 53 63 65 60 56 59 65
26 23 28 31 44 38 34 29 24 18 11 6 10 12 6 14 17 16 15 19 29 34 37 30 31 29 32 47 42 38 38 39 42 46 42 41 39 48 49 50 63 70 73
32 28 29 28 26 30 28 24 15 11 10 7 4 4 4 11 16 17 23 25 31 34 40 29 26 25 26 30 35 37 35 36 38 47 49 44 42 41 46 52 59 58 65
26 25 24 24 30 32 29 24 18 13 9 4 4 7 5 9 19 23 25 33 40 36 37 39 37 38 39 40 44 40 43 43 45 46 45 51 54 54 54 55 58 56 66
30 28 20 16 20 19 17 15 11 6 3 1 4 7 8 11 17 20 24 27 29 36 30 31 35 33 34 36 39 41 42 46 49 47 47 47 48 51 51 50 52 45 53
24 23 19 14 11 12 10 10 5 3 3 8 10 10 12 18 22 24 23 26 28 29 34 30 31 43 45 44 47 47 46 52 52 48 51 50 58 54 54 54 46 49 43
26 23 18 16 15 9 4 1 5 7 10 11 11 15 19 23 23 22 26 26 30 37 35 34 46 43 43 47 45 39 45 41 44 42 42 46 51 46 43 55 47 46 46
19 18 16 10 10 7 2 4 10 10 10 10 14 19 23 23 23 30 23 22 35 40 36 43 40 43 54 36 34 50 44 47 52 40 46 41 47 52 40 33 40 47 53
14 9 8 2 4 4 3 7 13 14 11 14 21 24 25 24 31 23 27 40 39 38 48 49 51 46 34 52 39 54 44 47 40 46 39 42 45 56 57 53 49 47 48
8 9 3 4 6 6 7 6 10 15 19 22 28 26 26 27 32 39 40 35 35 51 38 49 47 43 54 54 67 60 48 46 39 43 43 46 53 58 61 58 54 48 46
4 8 8 8 10 13 22 5 13 20 22 25 27 27 31 40 47 46 42 48 47 46 51 33 48 54 52 59 48 50 49 48 54 54 56 59 69 81 82 62 53 48 54
8 7 7 10 13 15 17 18 19 21 23 27 32 31 36 46 44 35 47 43 44 36 37 64 52 53 57 48 50 47 59 65 64 71 79 84 67 55 41 33 34 35 44
8 8 8 11 17 21 22 23 26 27 30 31 34 38 36 36 41 30 31 32 39 50 70 67 57 57 51 45 45 55 61 65 66 56 54 45 39 39 33 29 31 40 28
6 11 14 17 20 22 25 27 31 33 35 35 26 32 40 43 40 45 60 66 74 61 37 42 45 36 32 37 50 52 52 40 37 38 34 32 36 42 33 26 27 25 17
Wind_Direction_500mb
191 186 202 198 200 202 205 202 208 202 217 225 213 201 235 264 242 270 255 259 260 246 271 284 288 283 249 251 254 242 254 237 223 244 249 221 226 237 226 245 244 221 235
187 189 200 207 205 205 208 205 208 213 217 217 197 201 226 269 229 255 242 249 256 270 268 276 248 266 277 250 250 241 225 247 233 243 241 248 227 234 233 230 236 229 234
177 187 195 208 210 211 209 206 203 213 221 210 202 204 203 209 239 249 284 286 292 298 299 275 252 237 250 256 270 273 254 232 240 236 238 260 239 262 232 230 233 235 231
183 189 193 202 209 212 212 202 205 213 219 188 204 208 192 209 186 158 187 286 291 310 310 289 264 260 261 254 251 265 269 229 236 245 244 254 268 295 312 222 237 235 237
189 201 190 192 201 201 204 200 207 209 213 192 188 217 185 224 217 220 240 266 277 313 330 325 267 272 269 266 241 247 254 243 240 237 256 259 267 266 263 265 246 238 231
181 176 191 189 192 192 196 201 204 201 199 193 189 197 206 192 194 230 227 247 286 288 303 307 314 308 278 270 259 245 246 251 240 243 242 249 262 250 251 257 266 261 250
176 179 172 182 191 191 194 196 199 197 192 196 197 197 207 206 215 224 198 191 226 280 304 284 291 309 303 284 278 255 255 251 253 246 244 239 243 251 256 256 255 254 267
175 180 185 194 192 195 195 194 196 192 191 197 197 198 207 214 217 211 208 211 234 219 277 292 286 296 304 295 283 269 262 259 257 259 258 251 244 241 254 250 257 260 260
173 189 198 199 200 198 200 192 190 187 195 193 193 202 204 203 212 233 238 269 301 285 271 273 281 284 290 289 286 277 267 264 258 260 257 257 260 249 242 244 243 248 260
154 26 351 219 117 39 309 136 208 193 197 198 203 213 212 226 228 230 235 288 296 287 293 288 285 286 289 284 284 279 275 268 262 257 255 253 257 262 254 247 245 246 249
63 25 24 299 262 211 196 251 228 197 187 201 212 224 234 238 221 248 297 294 287 294 292 288 297 298 293 291 283 282 278 275 272 268 262 256 250 262 262 245 245 243 242
45 277 244 267 195 205 255 219 220 180 186 195 213 236 242 238 251 296 312 321 318 312 319 316 314 312 303 295 290 288 286 281 278 277 272 262 260 252 248 237 247 247 249
92 80 321 122 88 63 89 213 214 131 141 200 210 236 242 259 283 314 332 342 345 340 341 334 325 320 310 306 302 297 292 292 292 289 275 270 272 261 261 259 258 260 247
76 62 54 64 74 87 101 113 121 120 141 180 218 245 334 326 337 329 320 319 310 308 310 315 308 310 320 323 310 306 309 307 303 309 312 300 292 289 294 289 266 264 268
74 64 68 73 83 86 78 76 80 57 52 109 129 167 302 299 290 297 312 311 295 293 290 299 305 310 314 312 315 315 311 311 312 311 309 306 304 294 292 290 287 282 271
101 96 84 81 83 86 89 95 100 93 96 84 169 209 234 341 333 320 323 308 301 311 312 307 309 312 313 312 306 309 313 309 307 304 302 304 303 300 300 294 288 293 290
110 104 97 89 89 90 94 98 95 95 87 36 330 316 343 335 323 324 319 321 326 330 333 335 327 322 327 329 325 318 310 309 313 307 304 306 305 296 295 303 298 286 295
121 124 126 122 105 89 75 80 81 55 346 318 295 317 321 313 310 312 306 305 326 329 324 322 318 315 318 326 316 305 304 306 309 308 306 303 305 300 297 302 297 296 295
114 125 138 142 128 125 106 19 310 303 309 304 312 309 309 308 310 309 312 314 320 322 324 316 310 309 314 323 322 315 306 310 311 311 310 307 304 310 304 299 287 294 293
131 148 143 157 169 128 109 1 315 308 298 294 311 305 306 302 307 305 300 308 314 321 314 312 316 321 313 313 332 319 311 305 307 308 305 310 310 310 322 305 300 298 296
152 140 151 182 185 165 77 7 329 318 299 314 308 304 306 305 308 307 304 309 303 306 308 312 321 294 335 328 321 327 316 313 303 306 308 315 301 296 304 307 297 291 290
193 148 107 3 351 275 283 323 313 316 311 304 306 303 302 305 304 299 300 295 301 315 312 317 309 310 319 306 318 318 321 314 308 316 314 297 296 304 303 305 297 289 286
32 350 338 310 313 285 311 315 301 305 306 308 307 302 300 300 298 298 299 302 305 292 307 316 311 319 319 316 315 314 311 308 304 302 295 292 299 305 298 289 285 282 285
321 332 321 325 317 318 312 305 307 307 300 298 294 296 301 306 313 305 302 293 326 312 340 327 320 318 320 316 308 307 311 310 306 304 302 304 300 305 301 283 286 290 299
341 337 327 321 309 309 306 304 305 306 305 306 308 304 314 329 329 325 309 322 320 320 327 313 316 316 318 308 305 311 316 316 316 317 321 327 319 316 316 296 287 300 305
322 317 310 309 309 311 310 310 308 307 308 307 314 323 319 324 321 313 310 310 317 325 316 313 318 325 334 323 317 314 319 332 343 346 342 341 343 330 320 308 302 304 309
Wind_Speed_850mb
35 28 24 24 31 38 43 38 40 45 43 38 28 23 26 14 16 13 21 22 21 27 29 26 16 11 12 15 19 25 24 18 21 25 17 26 27 24 30 32 23 29 23
45 40 36 31 31 40 42 51 46 46 51 40 29 22 18 11 9 11 16 21 25 23 24 24 13 17 18 22 28 27 24 27 24 27 24 29 36 41 41 40 39 33 35
56 52 46 41 36 39 48 47 50 47 47 37 31 30 23 19 14 15 19 17 17 22 20 19 15 20 26 23 27 28 32 30 24 33 32 19 23 29 49 48 45 41 45
45 57 52 46 42 40 42 45 47 48 43 47 31 25 20 9 10 7 5 11 23 27 30 17 14 23 25 20 24 24 30 34 33 26 37 39 45 20 6 47 47 43 42
31 31 46 44 40 37 40 44 44 46 40 46 35 25 22 15 16 18 19 16 18 16 24 21 24 24 27 24 28 31 33 34 36 38 28 38 31 32 39 39 26 49 46
32 31 33 40 42 37 38 44 44 43 39 44 48 39 27 21 16 15 12 7 24 21 26 28 27 26 26 28 29 40 44 43 45 39 44 42 31 37 38 41 46 42 41
32 34 44 45 46 46 47 47 47 48 46 43 50 36 34 28 31 28 20 16 9 18 28 30 30 30 27 28 27 39 46 48 52 53 52 48 50 44 44 33 39 41 41
37 37 37 41 44 49 51 51 50 46 49 44 38 36 30 26 22 27 22 16 24 25 19 27 30 37 40 34 33 38 46 52 55 57 56 57 58 49 50 55 49 44 49
37 32 37 38 42 49 51 44 40 39 41 38 35 36 34 29 28 25 16 12 36 34 23 31 35 39 43 42 41 43 48 49 55 56 58 58 57 59 54 54 50 54 52
4 24 46 38 34 28 35 24 26 31 30 28 34 34 29 27 23 23 18 28 36 41 38 42 44 46 50 48 48 53 53 52 57 59 64 63 62 57 57 57 55 51 52
18 38 43 20 21 37 64 12 28 42 43 38 32 28 21 24 24 23 28 41 41 51 45 39 44 44 44 47 53 59 60 58 57 57 58 66 65 67 57 46 52 61 63
9 15 47 60 30 16 38 38 86 51 34 25 26 25 27 29 32 36 37 31 32 30 32 33 35 39 42 46 50 53 55 58 58 57 59 61 62 65 64 62 59 57 54
21 11 9 24 11 20 15 8 30 20 13 15 21 20 23 27 34 20 24 27 27 26 27 34 43 47 42 42 42 45 49 47 47 53 55 51 53 63 65 60 56 59 65
26 23 28 31 44 38 34 29 24 18 11 6 10 12 6 14 17 16 15 19 29 34 37 30 31 29 32 47 42 38 38 39 42 46 42 41 39 48 49 50 63 70 73
32 28 29 28 26 30 28 24 15 11 10 7 4 4 4 11 16 17 23 25 31 34 40 29 26 25 26 30 35 37 35 36 38 47 49 44 42 41 46 52 59 58 65
26 25 24 24 30 32 29 24 18 13 9 4 4 7 5 9 19 23 25 33 40 36 37 39 37 38 39 40 44 40 43 43 45 46 45 51 54 54 54 55 58 56 66
30 28 20 16 20 19 17 15 11 6 3 1 4 7 8 11 17 20 24 27 29 36 30 31 35 33 34 36 39 41 42 46 49 47 47 47 48 51 51 50 52 45 53
24 23 19 14 11 12 10 10 5 3 3 8 10 10 12 18 22 24 23 26 28 29 34 30 31 43 45 44 47 47 46 52 52 48 51 50 58 54 54 54 46 49 43
26 23 18 16 15 9 4 1 5 7 10 11 11 15 19 23 23 22 26 26 30 37 35 34 46 43 43 47 45 39 45 41 44 42 42 46 51 46 43 55 47 46 46
19 18 16 10 10 7 2 4 10 10 10 10 14 19 23 23 23 30 23 22 35 40 36 43 40 43 54 36 34 50 44 47 52 40 46 41 47 52 40 33 40 47 53
14 9 8 2 4 4 3 7 13 14 11 14 21 24 25 24 31 23 27 40 39 38 48 49 51 46 34 52 39 54 44 47 40 46 39 42 45 56 57 53 49 47 48
8 9 3 4 6 6 7 6 10 15 19 22 28 26 26 27 32 39 40 35 35 51 38 49 47 43 54 54 67 60 48 46 39 43 43 46 53 58 61 58 54 48 46
4 8 8 8 10 13 22 5 13 20 22 25 27 27 31 40 47 46 42 48 47 46 51 33 48 54 52 59 48 50 49 48 54 54 56 59 69 81 82 62 53 48 54
8 7 7 10 13 15 17 18 19 21 23 27 32 31 36 46 44 35 47 43 44 36 37 64 52 53 57 48 50 47 59 65 64 71 79 84 67 55 41 33 34 35 44
8 8 8 11 17 21 22 23 26 27 30 31 34 38 36 36 41 30 31 32 39 50 70 67 57 57 51 45 45 55 61 65 66 56 54 45 39 39 33 29 31 40 28
6 11 14 17 20 22 25 27 31 33 35 35 26 32 40 43 40 45 60 66 74 61 37 42 45 36 32 37 50 52 52 40 37 38 34 32 36 42 33 26 27 25 17
Wind_Direction_850mb
191 186 202 198 200 202 205 202 208 202 217 225 213 201 235 264 242 270 255 259 260 246 271 284 288 283 249 251 254 242 254 237 223 244 249 221 226 237 226 245 244 221 235
187 189 200 207 205 205 208 205 208 213 217 217 197 201 226 269 229 255 242 249 256 270 268 276 248 266 277 250 250 241 225 247 233 243 241 248 227 234 233 230 236 229 234
177 187 195 208 210 211 209 206 203 213 221 210 202 204 203 209 239 249 284 286 292 298 299 275 252 237 250 256 270 273 254 232 240 236 238 260 239 262 232 230 233 235 231
183 189 193 202 209 212 212 202 205 213 219 188 204 208 192 209 186 158 187 286 291 310 310 289 264 260 261 254 251 265 269 229 236 245 244 254 268 295 312 222 237 235 237
189 201 190 192 201 201 204 200 207 209 213 192 188 217 185 224 217 220 240 266 277 313 330 325 267 272 269 266 241 247 254 243 240 237 256 259 267 266 263 265 246 238 231
181 176 191 189 192 192 196 201 204 201 199 193 189 197 206 192 194 230 227 247 286 288 303 307 314 308 278 270 259 245 246 251 240 243 242 249 262 250 251 257 266 261 250
176 179 172 182 191 191 194 196 199 197 192 196 197 197 207 206 215 224 198 191 226 280 304 284 291 309 303 284 278 255 255 251 253 246 244 239 243 251 256 256 255 254 267
175 180 185 194 192 195 195 194 196 192 191 197 197 198 207 214 217 211 208 211 234 219 277 292 286 296 304 295 283 269 262 259 257 259 258 251 244 241 254 250 257 260 260
173 189 198 199 200 198 200 192 190 187 195 193 193 202 204 203 212 233 238 269 301 285 271 273 281 284 290 289 286 277 267 264 258 260 257 257 260 249 242 244 243 248 260
154 26 351 219 117 39 309 136 208 193 197 198 203 213 212 226 228 230 235 288 296 287 293 288 285 286 289 284 284 279 275 268 262 257 255 253 257 262 254 247 245 246 249
63 25 24 299 262 211 196 251 228 197 187 201 212 224 234 238 221 248 297 294 287 294 292 288 297 298 293 291 283 282 278 275 272 268 262 256 250 262 262 245 245 243 242
45 277 244 267 195 205 255 219 220 180 186 195 213 236 242 238 251 296 312 321 318 312 319 316 314 312 303 295 290 288 286 281 278 277 272 262 260 252 248 237 247 247 249
92 80 321 122 88 63 89 213 214 131 141 200 210 236 242 259 283 314 332 342 345 340 341 334 325 320 310 306 302 297 292 292 292 289 275 270 272 261 261 259 258 260 247
76 62 54 64 74 87 101 113 121 120 141 180 218 245 334 326 337 329 320 319 310 308 310 315 308 310 320 323 310 306 309 307 303 309 312 300 292 289 294 289 266 264 268
74 64 68 73 83 86 78 76 80 57 52 109 129 167 302 299 290 297 312 311 295 293 290 299 305 310 314 312 315 315 311 311 312 311 309 306 304 294 292 290 287 282 271
101 96 84 81 83 86 89 95 100 93 96 84 169 209 234 341 333 320 323 308 301 311 312 307 309 312 313 312 306 309 313 309 307 304 302 304 303 300 300 294 288 293 290
110 104 97 89 89 90 94 98 95 95 87 36 330 316 343 335 323 324 319 321 326 330 333 335 327 322 327 329 325 318 310 309 313 307 304 306 305 296 295 303 298 286 295
121 124 126 122 105 89 75 80 81 55 346 318 295 317 321 313 310 312 306 305 326 329 324 322 318 315 318 326 316 305 304 306 309 308 306 303 305 300 297 302 297 296 295
114 125 138 142 128 125 106 19 310 303 309 304 312 309 309 308 310 309 312 314 320 322 324 316 310 309 314 323 322 315 306 310 311 311 310 307 304 310 304 299 287 294 293
131 148 143 157 169 128 109 1 315 308 298 294 311 305 306 302 307 305 300 308 314 321 314 312 316 321 313 313 332 319 311 305 307 308 305 310 310 310 322 305 300 298 296
152 140 151 182 185 165 77 7 329 318 299 314 308 304 306 305 308 307 304 309 303 306 308 312 321 294 335 328 321 327 316 313 303 306 308 315 301 296 304 307 297 291 290
193 148 107 3 351 275 283 323 313 316 311 304 306 303 302 305 304 299 300 295 301 315 312 317 309 310 319 306 318 318 321 314 308 316 314 297 296 304 303 305 297 289 286
32 350 338 310 313 285 311 315 301 305 306 308 307 302 300 300 298 298 299 302 305 292 307 316 311 319 319 316 315 314 311 308 304 302 295 292 299 305 298 289 285 282 285
321 332 321 325 317 318 312 305 307 307 300 298 294 296 301 306 313 305 302 293 326 312 340 327 320 318 320 316 308 307 311 310 306 304 302 304 300 305 301 283 286 290 299
341 337 327 321 309 309 306 304 305 306 305 306 308 304 314 329 329 325 309 322 320 320 327 313 316 316 318 308 305 311 316 316 316 317 321 327 319 316 316 296 287 300 305
322 317 310 309 309 311 310 310 308 307 308 307 314 323 319 324 321 313 310 310 317 325 316 313 318 325 334 323 317 314 319 332 343 346 342 341 343 330 320 308 302 304 309